Find Starlink 36686

NORAD ID: 68720 Int'l Des: 2026-081 Owner: SPXS Country: US Constellation: starlink operational
LEOCIRCULAR

リアルタイム位置

3D地球を読み込み中...

Starlink 36686について

説明を読み込み中...

次回通過

Passes for default location (London). Set your location on the main map for personalized predictions.

高度履歴

Loading altitude history...

軌道要素

1 68720C 26081W 26105.39354167 .00629890 00000+0 80798-3 0 1059
2 68720 53.1628 237.9464 0007069 304.1023 71.6095 16.06155125 11
Epoch: Apr 15, 2026 • Age: 24 hours

現在のステータス

高度 265.9 km
速度 7.75 km/s
衛星直下点 -45.01°S, 18.37°W
打ち上げ日 Apr 14, 2026
運用期間 1 days
タイプ internet

技術仕様

分類 Payload
質量 575.00 kg
乾燥質量 530.00 kg
総質量 575.00 kg
長さ 0.30 m
直径 4.10 m
スパン 29.00 m
形状 Box + pan
製造者 SPXS
バスタイプ Starlink V2MO
フェーズステータス In Orbit
所有者/国 SPXS/US

Most Searched